date,time,SUV Intensity [MED/Hr],UV Index,Daily total [MED],Since Last [MED]
19/06/2022,00:10:30,0.000,0.0,0.0,0.0
19/06/2022,00:16:37,0.001,0.0,0.0,0.0
19/06/2022,00:23:29,0.000,0.0,0.0,0.0
19/06/2022,00:31:30,0.000,0.0,0.0,0.0
19/06/2022,00:38:29,-0.000,0.0,0.0,0.0
19/06/2022,00:44:28,0.000,0.0,0.0,0.0
19/06/2022,00:51:31,-0.001,0.0,0.0,0.0
19/06/2022,00:58:29,-0.001,0.0,0.0,0.0
19/06/2022,01:05:29,0.000,0.0,0.0,0.0
19/06/2022,01:11:29,-0.000,0.0,0.0,0.0
19/06/2022,01:18:30,0.000,0.0,0.0,0.0
19/06/2022,01:25:29,-0.001,0.0,0.0,0.0
19/06/2022,01:35:32,0.000,0.0,0.0,0.0
19/06/2022,01:43:30,0.000,0.0,0.0,0.0
19/06/2022,01:50:29,-0.000,0.0,0.0,0.0
19/06/2022,01:57:29,0.000,0.0,0.0,0.0
19/06/2022,02:03:29,0.001,0.0,0.0,0.0
19/06/2022,02:10:30,0.000,0.0,0.0,0.0
19/06/2022,02:17:37,0.000,0.0,0.0,0.0
19/06/2022,02:23:28,-0.000,0.0,0.0,0.0
19/06/2022,02:32:31,0.000,0.0,0.0,0.0
19/06/2022,02:39:30,-0.000,0.0,0.0,0.0
19/06/2022,02:46:29,0.000,0.0,0.0,0.0
19/06/2022,02:52:29,0.000,0.0,0.0,0.0
19/06/2022,02:58:29,-0.001,0.0,0.0,0.0
19/06/2022,03:05:29,0.000,0.0,0.0,0.0
19/06/2022,03:11:28,0.000,0.0,0.0,0.0
19/06/2022,03:18:30,0.000,0.0,0.0,0.0
19/06/2022,03:25:29,0.000,0.0,0.0,0.0
19/06/2022,03:32:46,0.001,0.0,0.0,0.0
19/06/2022,03:39:29,0.001,0.0,0.0,0.0
19/06/2022,03:45:28,0.001,0.0,0.0,0.0
19/06/2022,03:52:29,0.002,0.0,0.0,0.0
19/06/2022,03:58:29,0.003,0.0,0.0,0.0
19/06/2022,04:04:29,0.003,0.0,0.0,0.0
19/06/2022,04:11:29,0.005,0.0,0.0,0.0
19/06/2022,04:18:37,0.008,0.0,0.001,0.001
19/06/2022,04:26:30,0.009,0.0,0.002,0.001
19/06/2022,04:33:30,0.013,0.0,0.003,0.001
19/06/2022,04:40:29,0.016,0.0,0.005,0.002
19/06/2022,04:47:29,0.020,0.0,0.007,0.002
19/06/2022,04:53:29,0.023,0.0,0.009,0.002
19/06/2022,05:00:29,0.026,0.0,0.012,0.003
19/06/2022,05:07:29,0.028,0.0,0.015,0.003
19/06/2022,05:13:28,0.032,0.0,0.018,0.003
19/06/2022,05:20:30,0.039,0.0,0.022,0.004
19/06/2022,05:26:29,0.042,0.0,0.026,0.004
19/06/2022,05:33:30,0.051,0.0,0.031,0.005
19/06/2022,05:39:37,0.062,0.0,0.037,0.006
19/06/2022,05:46:29,0.081,0.0,0.045,0.008
19/06/2022,05:52:29,0.096,0.0,0.054,0.009
19/06/2022,05:59:29,0.110,0.0,0.066,0.012
19/06/2022,06:06:29,0.118,0.0,0.08,0.014
19/06/2022,06:12:28,0.131,0.0,0.092,0.012
19/06/2022,06:20:30,0.149,0.0,0.111,0.019
19/06/2022,06:26:29,0.153,0.0,0.126,0.015
19/06/2022,06:33:30,0.178,0.0,0.145,0.019
19/06/2022,06:40:29,0.220,1.0,0.169,0.024
19/06/2022,06:47:38,0.258,1.0,0.197,0.028
19/06/2022,06:56:31,0.317,1.0,0.239,0.042
19/06/2022,07:05:31,0.351,1.0,0.289,0.05
19/06/2022,07:12:30,0.369,1.0,0.331,0.042
19/06/2022,07:18:29,0.382,1.0,0.369,0.038
19/06/2022,07:25:29,0.365,1.0,0.412,0.043
19/06/2022,07:31:29,0.419,1.0,0.451,0.039
19/06/2022,07:37:29,0.457,1.0,0.495,0.044
19/06/2022,07:44:30,0.527,1.0,0.551,0.056
19/06/2022,07:50:37,0.610,1.0,0.608,0.057
19/06/2022,07:57:30,0.779,2.0,0.685,0.077
19/06/2022,08:03:29,0.892,2.0,0.769,0.084
19/06/2022,08:10:30,0.780,2.0,0.866,0.097
19/06/2022,08:18:31,0.899,2.0,0.974,0.108
19/06/2022,08:25:38,0.930,2.0,1.085,0.111
19/06/2022,08:31:29,1.049,2.0,1.177,0.092
19/06/2022,08:39:39,1.134,3.0,1.325,0.148
19/06/2022,08:45:29,1.179,3.0,1.437,0.112
19/06/2022,08:51:29,1.182,3.0,1.553,0.116
19/06/2022,08:58:30,1.272,3.0,1.684,0.131
19/06/2022,09:05:46,1.350,3.0,1.825,0.141
19/06/2022,09:12:38,0.894,2.0,1.955,0.13
19/06/2022,09:19:29,1.520,3.0,2.091,0.136
19/06/2022,09:25:30,1.197,3.0,2.222,0.131
19/06/2022,09:32:30,1.245,3.0,2.407,0.185
19/06/2022,09:39:30,1.494,3.0,2.583,0.176
19/06/2022,09:46:30,1.410,3.0,2.741,0.158
19/06/2022,09:52:30,1.417,3.0,2.879,0.138
19/06/2022,10:01:32,1.055,2.0,3.051,0.172
19/06/2022,10:09:30,1.243,3.0,3.202,0.151
19/06/2022,10:15:30,1.142,3.0,3.327,0.125
19/06/2022,10:22:30,1.231,3.0,3.473,0.146
19/06/2022,10:29:39,1.084,2.0,3.609,0.136
19/06/2022,10:38:32,1.072,2.0,3.758,0.149
19/06/2022,10:44:29,1.249,3.0,3.875,0.117
19/06/2022,10:51:38,1.677,4.0,4.042,0.167
19/06/2022,10:58:30,1.292,3.0,4.235,0.193
19/06/2022,11:05:30,2.080,5.0,4.439,0.204
19/06/2022,11:12:31,2.018,5.0,4.695,0.256
19/06/2022,11:19:30,2.277,5.0,4.926,0.231
19/06/2022,11:26:30,1.277,3.0,5.108,0.182
19/06/2022,11:33:31,2.465,6.0,5.299,0.191
19/06/2022,11:40:38,1.617,4.0,5.56,0.261
19/06/2022,11:46:29,1.268,3.0,5.739,0.179
19/06/2022,11:55:32,1.542,4.0,5.988,0.249
19/06/2022,12:06:33,1.709,4.0,6.259,0.271
19/06/2022,12:12:29,2.098,5.0,6.454,0.195
19/06/2022,12:20:39,1.978,5.0,6.702,0.248
19/06/2022,12:27:30,2.004,5.0,6.953,0.251
19/06/2022,12:36:32,1.862,4.0,7.25,0.297
19/06/2022,12:44:31,2.020,5.0,7.456,0.206
19/06/2022,12:52:31,2.114,5.0,7.722,0.266
19/06/2022,13:00:31,1.133,3.0,7.894,0.172
19/06/2022,13:07:38,0.987,2.0,8.034,0.14
19/06/2022,13:14:30,1.171,3.0,8.147,0.113
19/06/2022,13:21:31,1.447,3.0,8.312,0.165
19/06/2022,13:27:29,1.276,3.0,8.447,0.135
19/06/2022,13:34:39,0.970,2.0,8.607,0.16
19/06/2022,13:40:30,0.917,2.0,8.701,0.094
19/06/2022,13:50:33,0.730,2.0,8.824,0.123
19/06/2022,13:57:30,0.657,2.0,8.911,0.087
19/06/2022,14:04:37,0.495,1.0,8.975,0.064
19/06/2022,14:11:31,0.431,1.0,9.027,0.052
19/06/2022,14:18:31,0.620,1.0,9.09,0.063
19/06/2022,14:25:30,0.646,1.0,9.166,0.076
19/06/2022,14:31:30,0.456,1.0,9.217,0.051
19/06/2022,14:40:32,0.779,2.0,9.312,0.095
19/06/2022,14:47:30,0.629,1.0,9.396,0.084
19/06/2022,14:55:31,0.481,1.0,9.469,0.073
19/06/2022,15:02:30,0.433,1.0,9.52,0.051
19/06/2022,15:10:31,0.342,1.0,9.575,0.055
19/06/2022,15:17:31,0.279,1.0,9.609,0.034
19/06/2022,15:26:32,0.249,1.0,9.648,0.039
19/06/2022,15:33:38,0.174,0.0,9.673,0.025
19/06/2022,15:40:30,0.137,0.0,9.69,0.017
19/06/2022,15:48:31,0.185,0.0,9.712,0.022
19/06/2022,15:56:31,0.171,0.0,9.736,0.024
19/06/2022,16:04:32,0.183,0.0,9.759,0.023
19/06/2022,16:13:32,0.170,0.0,9.786,0.027
19/06/2022,16:21:32,0.152,0.0,9.808,0.022
19/06/2022,16:29:31,0.132,0.0,9.826,0.018
19/06/2022,16:36:31,0.118,0.0,9.842,0.016
19/06/2022,16:46:33,0.080,0.0,9.858,0.016
19/06/2022,16:56:33,0.071,0.0,9.87,0.012
19/06/2022,17:04:32,0.068,0.0,9.879,0.009
19/06/2022,17:11:30,0.058,0.0,9.887,0.008
19/06/2022,17:20:32,0.067,0.0,9.896,0.009
19/06/2022,17:27:30,0.081,0.0,9.905,0.009
19/06/2022,17:35:31,0.068,0.0,9.915,0.01
19/06/2022,17:43:31,0.049,0.0,9.923,0.008
19/06/2022,17:50:31,0.045,0.0,9.928,0.005
19/06/2022,17:58:32,0.033,0.0,9.933,0.005
19/06/2022,18:07:33,0.024,0.0,9.937,0.004
19/06/2022,18:15:40,0.019,0.0,9.94,0.003
19/06/2022,18:27:35,0.018,0.0,9.944,0.004
19/06/2022,18:35:33,0.018,0.0,9.947,0.003
19/06/2022,18:43:31,0.011,0.0,9.948,0.001
19/06/2022,18:50:31,0.010,0.0,9.95,0.002
19/06/2022,19:00:34,0.011,0.0,9.951,0.001
19/06/2022,19:08:32,0.010,0.0,9.953,0.002
19/06/2022,19:16:31,0.009,0.0,9.954,0.001
19/06/2022,19:26:33,0.006,0.0,9.955,0.001
19/06/2022,19:37:53,0.005,0.0,9.956,0.001
19/06/2022,19:45:31,0.003,0.0,9.956,0.0
19/06/2022,19:53:32,0.001,0.0,9.956,0.0
19/06/2022,20:01:32,-0.000,0.0,9.956,0.0
19/06/2022,20:10:33,-0.001,0.0,9.956,0.0
19/06/2022,20:19:32,-0.001,0.0,9.956,0.0
19/06/2022,20:27:31,-0.001,0.0,9.956,0.0
19/06/2022,20:35:32,-0.002,0.0,9.956,0.0
19/06/2022,20:43:32,-0.001,0.0,9.956,0.0
19/06/2022,20:51:32,-0.001,0.0,9.956,0.0
19/06/2022,20:59:40,-0.001,0.0,9.956,0.0
19/06/2022,21:07:31,-0.002,0.0,9.956,0.0
19/06/2022,21:15:32,-0.002,0.0,9.956,0.0
19/06/2022,21:22:31,-0.002,0.0,9.956,0.0
19/06/2022,21:29:31,-0.002,0.0,9.956,0.0
19/06/2022,21:37:32,-0.002,0.0,9.956,0.0
19/06/2022,21:45:32,-0.002,0.0,9.956,0.0
19/06/2022,21:54:33,-0.003,0.0,9.956,0.0
19/06/2022,22:01:31,-0.002,0.0,9.956,0.0
19/06/2022,22:09:32,-0.002,0.0,9.956,0.0
19/06/2022,22:17:32,-0.002,0.0,9.956,0.0
19/06/2022,22:25:32,-0.002,0.0,9.956,0.0
19/06/2022,22:33:32,-0.002,0.0,9.956,0.0
19/06/2022,22:41:32,-0.002,0.0,9.956,0.0
19/06/2022,22:49:32,-0.002,0.0,9.956,0.0
19/06/2022,22:57:32,-0.002,0.0,9.956,0.0
19/06/2022,23:05:48,-0.003,0.0,9.956,0.0
19/06/2022,23:13:31,-0.002,0.0,9.956,0.0
19/06/2022,23:21:32,-0.000,0.0,9.956,0.0
19/06/2022,23:29:32,-0.001,0.0,9.956,0.0
19/06/2022,23:37:42,-0.001,0.0,9.956,0.0
19/06/2022,23:45:32,-0.002,0.0,9.956,0.0
19/06/2022,23:53:32,-0.002,0.0,9.956,0.0
20/06/2022,00:01:32,0.000,0.0,0.0,-9.956
